Location: Carr Mill
(33.2054°N, 85.9439°W)
Time: 18:36:54
(UTC+00:00)

X-37B - Visible Passes

Search period start: 13 June 2021 00:00
Search period end: 23 June 2021 00:00
Orbit: 386 x 389 km, 45.0° (Epoch: 10 June)

Date Brightness Start Highest point End Pass type
(mag) Time Alt. Az. Time Alt. Az. Time Alt. Az.
13 Jun 3.2 08:33:18 13° NW 08:34:31 15° NNW 08:36:28 10° NNE visible
14 Jun 3.5 07:37:12 17° NNE 07:37:12 17° NNE 07:38:27 10° NNE visible
14 Jun 3.8 09:13:04 10° N 09:13:24 10° N 09:13:46 10° N visible
15 Jun 3.6 08:13:29 10° NNW 08:14:42 12° N 08:15:56 10° NNE visible
15 Jun 3.8 09:51:24 10° N 09:52:23 11° N 09:53:22 10° NNE visible
16 Jun 4.0 07:17:16 13° N 07:17:16 13° N 07:18:00 10° NNE visible
17 Jun 3.9 07:54:38 10° N 07:54:57 10° N 07:55:16 10° N visible
17 Jun 3.7 09:30:51 10° NNW 09:32:36 14° NNE 09:34:20 10° NE visible
18 Jun 4.3 06:57:24 10° NNE 06:57:24 10° NNE 06:57:28 10° NNE visible
18 Jun 3.9 08:32:55 10° N 08:33:55 11° N 08:34:55 10° NNE visible
19 Jun 3.5 09:10:22 10° NNW 09:12:45 19° NNE 09:15:07 10° ENE visible
20 Jun 3.8 08:12:22 10° NNW 08:14:08 14° NNE 08:15:53 10° NE visible
20 Jun 1.3 09:48:07 10° NW 09:51:15 56° NNE 09:54:22 10° ESE visible
21 Jun 4.1 07:14:49 11° N 07:15:27 11° N 07:16:28 10° NNE visible
21 Jun 2.6 08:49:57 10° NW 08:52:49 30° NNE 08:55:39 10° E visible
22 Jun 2.6 01:24:38 10° SSE 01:25:46 11° SE 01:26:55 10° ESE visible
22 Jun 1.6 02:58:55 10° WSW 03:01:06 39° WSW 03:01:06 39° WSW visible
22 Jun 3.4 07:52:40 14° NNW 07:54:17 19° NNE 07:56:40 10° ENE visible
22 Jun 0.5 09:28:00 10° WNW 09:31:08 65° SW 09:34:16 10° SE visible
